QPF
0.00 0.00 0.00 0.00 0.00 0.00 0.00 0.00 0.00 0.00 0.00 0.00 0.00 0.00 0.00 0.00 0.00 0.00 0.00 0.00 0.00 0.00 0.00 0.00 0.00 0.00 0.00 0.00 0.00 0.00 0.00 0.00 0.00 0.00 0.00 0.00 0.00 0.00 0.00 0.00 0.00 0.00 0.00 0.00 0.00 0.00 0.00
0.00 0.00 0.00 0.00 0.00 0.00 0.00 0.00 0.00 0.00 0.00 0.00 0.00 0.00 0.00 0.00 0.00 0.00 0.00 0.00 0.00 0.00 0.00 0.00 0.00 0.00 0.00 0.00 0.00 0.00 0.00 0.00 0.00 0.00 0.00 0.00 0.00 0.00 0.00 0.00 0.00 0.00 0.00 0.00 0.00 0.00 0.00
0.00 0.00 0.00 0.00 0.00 0.00 0.00 0.00 0.00 0.00 0.00 0.00 0.00 0.00 0.00 0.00 0.00 0.00 0.00 0.00 0.00 0.00 0.00 0.00 0.00 0.00 0.00 0.00 0.00 0.00 0.00 0.00 0.00 0.00 0.00 0.00 0.00 0.00 0.00 0.00 0.00 0.00 0.00 0.00 0.00 0.00 0.00
0.00 0.00 0.00 0.00 0.00 0.00 0.00 0.00 0.00 0.00 0.00 0.00 0.00 0.00 0.00 0.00 0.00 0.00 0.00 0.00 0.00 0.00 0.00 0.00 0.00 0.00 0.00 0.00 0.00 0.00 0.00 0.00 0.00 0.00 0.00 0.00 0.00 0.00 0.00 0.00 0.00 0.00 0.00 0.00 0.00 0.00 0.00
0.00 0.00 0.00 0.00 0.00 0.00 0.00 0.00 0.00 0.00 0.00 0.00 0.00 0.00 0.00 0.00 0.00 0.00 0.00 0.00 0.00 0.00 0.00 0.00 0.00 0.00 0.00 0.00 0.00 0.00 0.00 0.00 0.00 0.00 0.00 0.00 0.00 0.00 0.00 0.00 0.00 0.00 0.00 0.00 0.00 0.00 0.00
0.00 0.00 0.00 0.00 0.00 0.00 0.00 0.00 0.00 0.00 0.00 0.00 0.00 0.00 0.00 0.00 0.00 0.00 0.00 0.00 0.00 0.00 0.00 0.00 0.00 0.00 0.00 0.00 0.00 0.00 0.00 0.00 0.00 0.00 0.00 0.00 0.00 0.00 0.00 0.00 0.00 0.00 0.00 0.00 0.00 0.00 0.00
0.00 0.00 0.00 0.00 0.00 0.00 0.00 0.00 0.00 0.00 0.00 0.00 0.00 0.00 0.00 0.00 0.00 0.00 0.00 0.00 0.00 0.00 0.00 0.00 0.00 0.00 0.00 0.00 0.00 0.00 0.00 0.00 0.00 0.00 0.00 0.00 0.00 0.00 0.00 0.00 0.00 0.00 0.00 0.00 0.00 0.00 0.00
0.00 0.00 0.00 0.00 0.00 0.00 0.00 0.00 0.00 0.00 0.00 0.00 0.00 0.00 0.00 0.00 0.00 0.00 0.00 0.00 0.00 0.00 0.00 0.00 0.00 0.00 0.00 0.00 0.00 0.00 0.00 0.00 0.00 0.00 0.00 0.00 0.00 0.00 0.00 0.00 0.00 0.00 0.00 0.00 0.00 0.00 0.00
0.00 0.00 0.00 0.00 0.00 0.00 0.00 0.00 0.00 0.00 0.00 0.00 0.00 0.00 0.00 0.00 0.00 0.00 0.00 0.00 0.00 0.00 0.00 0.00 0.00 0.00 0.00 0.00 0.00 0.00 0.00 0.00 0.00 0.00 0.00 0.00 0.00 0.00 0.00 0.00 0.00 0.00 0.00 0.00 0.00 0.00 0.00
0.00 0.00 0.00 0.00 0.00 0.00 0.00 0.00 0.00 0.00 0.00 0.00 0.00 0.00 0.00 0.00 0.00 0.00 0.00 0.00 0.00 0.00 0.00 0.00 0.00 0.00 0.00 0.00 0.00 0.00 0.00 0.00 0.00 0.00 0.00 0.00 0.00 0.00 0.00 0.00 0.00 0.00 0.00 0.00 0.00 0.00 0.00
0.00 0.00 0.00 0.00 0.00 0.00 0.00 0.00 0.00 0.00 0.00 0.00 0.00 0.00 0.00 0.00 0.00 0.00 0.00 0.00 0.00 0.00 0.00 0.00 0.00 0.00 0.00 0.00 0.00 0.00 0.00 0.00 0.00 0.00 0.00 0.00 0.00 0.00 0.00 0.00 0.00 0.00 0.00 0.00 0.00 0.00 0.00
0.00 0.00 0.00 0.00 0.00 0.00 0.00 0.00 0.00 0.00 0.00 0.00 0.00 0.00 0.00 0.00 0.00 0.00 0.00 0.00 0.00 0.00 0.00 0.00 0.00 0.00 0.00 0.00 0.00 0.00 0.00 0.00 0.00 0.00 0.00 0.00 0.00 0.00 0.00 0.00 0.00 0.00 0.00 0.00 0.00 0.00 0.00
0.00 0.00 0.00 0.00 0.00 0.00 0.00 0.00 0.00 0.00 0.00 0.00 0.00 0.00 0.00 0.00 0.00 0.00 0.00 0.00 0.00 0.00 0.00 0.00 0.00 0.00 0.00 0.00 0.00 0.00 0.00 0.00 0.00 0.00 0.00 0.00 0.00 0.00 0.00 0.00 0.00 0.00 0.00 0.00 0.00 0.00 0.00
0.00 0.00 0.00 0.00 0.00 0.00 0.00 0.00 0.00 0.00 0.00 0.00 0.00 0.00 0.00 0.00 0.00 0.00 0.00 0.00 0.00 0.00 0.00 0.00 0.00 0.00 0.00 0.00 0.00 0.00 0.00 0.00 0.00 0.00 0.00 0.00 0.00 0.00 0.00 0.00 0.00 0.00 0.00 0.00 0.00 0.00 0.00
0.00 0.00 0.00 0.00 0.00 0.00 0.00 0.00 0.00 0.00 0.00 0.00 0.00 0.00 0.00 0.00 0.00 0.00 0.00 0.00 0.00 0.00 0.00 0.00 0.00 0.00 0.00 0.00 0.00 0.00 0.00 0.00 0.00 0.00 0.00 0.00 0.00 0.00 0.00 0.00 0.00 0.00 0.00 0.00 0.00 0.00 0.00
0.00 0.00 0.00 0.00 0.00 0.00 0.00 0.00 0.00 0.00 0.00 0.00 0.00 0.00 0.00 0.00 0.00 0.00 0.00 0.00 0.00 0.00 0.00 0.00 0.00 0.00 0.00 0.00 0.00 0.00 0.00 0.00 0.00 0.00 0.00 0.00 0.00 0.00 0.00 0.00 0.00 0.00 0.00 0.00 0.00 0.00 0.00
0.00 0.00 0.00 0.00 0.00 0.00 0.00 0.00 0.00 0.00 0.00 0.00 0.00 0.00 0.00 0.00 0.00 0.00 0.00 0.00 0.00 0.00 0.00 0.00 0.00 0.00 0.00 0.00 0.00 0.00 0.00 0.00 0.00 0.00 0.00 0.00 0.00 0.00 0.00 0.00 0.00 0.00 0.00 0.00 0.00 0.00 0.00
0.00 0.00 0.00 0.00 0.00 0.00 0.00 0.00 0.00 0.00 0.00 0.00 0.00 0.00 0.00 0.00 0.00 0.00 0.00 0.00 0.00 0.00 0.00 0.00 0.00 0.00 0.00 0.00 0.00 0.00 0.00 0.00 0.00 0.00 0.00 0.00 0.00 0.00 0.00 0.00 0.00 0.00 0.00 0.00 0.00 0.00 0.00
0.00 0.00 0.00 0.00 0.00 0.00 0.00 0.00 0.00 0.00 0.00 0.00 0.00 0.00 0.00 0.00 0.00 0.00 0.00 0.00 0.00 0.00 0.00 0.00 0.00 0.00 0.00 0.00 0.00 0.00 0.00 0.00 0.00 0.00 0.00 0.00 0.00 0.00 0.00 0.00 0.00 0.00 0.00 0.00 0.00 0.00 0.00
0.00 0.00 0.00 0.00 0.00 0.00 0.00 0.00 0.00 0.00 0.00 0.00 0.00 0.00 0.00 0.00 0.00 0.00 0.00 0.00 0.00 0.00 0.00 0.00 0.00 0.00 0.00 0.00 0.00 0.00 0.00 0.00 0.00 0.00 0.00 0.00 0.00 0.00 0.00 0.00 0.00 0.00 0.00 0.00 0.00 0.00 0.00
0.00 0.00 0.00 0.00 0.00 0.00 0.00 0.00 0.00 0.00 0.00 0.00 0.00 0.00 0.00 0.00 0.00 0.00 0.00 0.00 0.00 0.00 0.00 0.00 0.00 0.00 0.00 0.00 0.00 0.00 0.00 0.00 0.00 0.00 0.00 0.00 0.00 0.00 0.00 0.00 0.00 0.00 0.00 0.00 0.00 0.00 0.00
0.00 0.00 0.00 0.00 0.00 0.00 0.00 0.00 0.00 0.00 0.00 0.00 0.00 0.00 0.00 0.00 0.00 0.00 0.00 0.00 0.00 0.00 0.00 0.00 0.00 0.00 0.00 0.00 0.00 0.00 0.00 0.00 0.00 0.00 0.00 0.00 0.00 0.00 0.00 0.00 0.00 0.00 0.00 0.00 0.00 0.00 0.00
0.00 0.00 0.00 0.00 0.00 0.00 0.00 0.00 0.00 0.00 0.00 0.00 0.00 0.00 0.00 0.00 0.00 0.00 0.00 0.00 0.00 0.00 0.00 0.00 0.00 0.00 0.00 0.00 0.00 0.00 0.00 0.00 0.00 0.00 0.00 0.00 0.00 0.00 0.00 0.00 0.00 0.00 0.00 0.00 0.00 0.00 0.00
0.00 0.00 0.00 0.00 0.00 0.00 0.00 0.00 0.00 0.00 0.00 0.00 0.00 0.00 0.00 0.00 0.00 0.00 0.00 0.00 0.00 0.00 0.00 0.00 0.00 0.00 0.00 0.00 0.00 0.00 0.00 0.00 0.00 0.00 0.00 0.00 0.00 0.00 0.00 0.00 0.00 0.00 0.00 0.00 0.00 0.00 0.00
0.00 0.00 0.00 0.00 0.00 0.00 0.00 0.00 0.00 0.00 0.00 0.00 0.00 0.00 0.00 0.00 0.00 0.00 0.00 0.00 0.00 0.00 0.00 0.00 0.00 0.00 0.00 0.00 0.00 0.00 0.00 0.00 0.00 0.00 0.00 0.00 0.00 0.00 0.00 0.00 0.00 0.00 0.00 0.00 0.00 0.00 0.00
0.00 0.00 0.00 0.00 0.00 0.00 0.00 0.00 0.00 0.00 0.00 0.00 0.00 0.00 0.00 0.00 0.00 0.00 0.00 0.00 0.00 0.00 0.00 0.00 0.00 0.00 0.00 0.00 0.00 0.00 0.00 0.00 0.00 0.00 0.00 0.00 0.00 0.00 0.00 0.00 0.00 0.00 0.00 0.00 0.00 0.00 0.00
0.00 0.00 0.00 0.00 0.00 0.00 0.00 0.00 0.00 0.00 0.00 0.00 0.00 0.00 0.00 0.00 0.00 0.00 0.00 0.00 0.00 0.00 0.00 0.00 0.00 0.00 0.00 0.00 0.00 0.00 0.00 0.00 0.00 0.00 0.00 0.00 0.00 0.00 0.00 0.00 0.00 0.00 0.00 0.00 0.00 0.00 0.00
0.00 0.00 0.00 0.00 0.00 0.00 0.00 0.00 0.00 0.00 0.00 0.00 0.00 0.00 0.00 0.00 0.00 0.00 0.00 0.00 0.00 0.00 0.00 0.00 0.00 0.00 0.00 0.00 0.00 0.00 0.00 0.00 0.00 0.00 0.00 0.00 0.00 0.00 0.00 0.00 0.00 0.00 0.00 0.00 0.00 0.00 0.00
0.00 0.00 0.00 0.00 0.00 0.00 0.00 0.00 0.00 0.00 0.00 0.00 0.00 0.00 0.00 0.00 0.00 0.00 0.00 0.00 0.00 0.00 0.00 0.00 0.00 0.00 0.00 0.00 0.00 0.00 0.00 0.00 0.00 0.00 0.00 0.00 0.00 0.00 0.00 0.00 0.00 0.00 0.00 0.00 0.00 0.00 0.00
MSLP
1026.12 1026.18 1026.14 1026.01 1025.93 1025.83 1025.73 1025.62 1025.48 1025.31 1025.12 1024.97 1024.82 1024.66 1024.48 1024.30 1024.15 1024.01 1023.86 1023.67 1023.40 1023.22 1023.00 1022.64 1022.08 1021.58 1021.71 1023.64 1025.77 1025.23 1024.23 1023.76 1023.07 1022.65 1022.23 1022.12 1022.34 1022.68 1023.32 1023.37 1023.34 1023.49 1023.64 1023.41 1023.07 1023.11 1023.00
1026.36 1026.46 1026.41 1026.34 1026.28 1026.15 1025.99 1025.85 1025.73 1025.58 1025.38 1025.18 1025.02 1024.82 1024.60 1024.41 1024.23 1024.10 1023.95 1023.78 1023.60 1023.40 1023.16 1022.85 1022.42 1021.87 1022.38 1024.81 1025.96 1025.32 1024.57 1023.96 1023.65 1023.29 1023.40 1023.12 1023.71 1023.32 1023.69 1023.95 1024.00 1024.16 1023.95 1023.71 1023.10 1023.10 1023.08
1026.63 1026.71 1026.72 1026.71 1026.63 1026.46 1026.29 1026.12 1025.96 1025.78 1025.59 1025.36 1025.14 1024.94 1024.68 1024.43 1024.28 1024.19 1024.06 1023.94 1023.78 1023.54 1023.26 1022.97 1022.75 1022.85 1023.98 1026.03 1025.79 1025.38 1024.73 1024.37 1024.09 1023.92 1023.88 1023.85 1024.01 1024.01 1024.22 1024.32 1024.37 1024.48 1024.90 1024.31 1023.70 1023.85 1023.52
1027.01 1027.04 1027.05 1027.01 1026.87 1026.72 1026.58 1026.37 1026.14 1025.93 1025.74 1025.54 1025.33 1025.09 1024.82 1024.58 1024.42 1024.28 1024.16 1024.04 1023.89 1023.69 1023.39 1023.05 1022.90 1023.14 1025.16 1025.48 1025.54 1025.45 1024.97 1024.50 1024.18 1023.95 1024.07 1024.08 1024.11 1024.35 1024.76 1024.81 1024.81 1025.31 1025.67 1025.88 1024.75 1024.33 1023.89
1027.35 1027.35 1027.33 1027.24 1027.14 1027.01 1026.84 1026.59 1026.34 1026.11 1025.94 1025.73 1025.53 1025.33 1025.12 1024.86 1024.62 1024.39 1024.20 1023.99 1023.90 1023.58 1023.31 1023.00 1023.04 1023.30 1025.50 1025.49 1025.75 1025.65 1025.58 1025.31 1024.64 1024.21 1024.09 1024.01 1024.25 1025.57 1026.23 1026.57 1026.91 1027.64 1028.13 1027.85 1026.24 1025.26 1024.97
1027.67 1027.66 1027.63 1027.54 1027.42 1027.31 1027.10 1026.81 1026.56 1026.39 1026.17 1025.89 1025.67 1025.47 1025.29 1025.08 1024.84 1024.57 1024.27 1024.04 1023.80 1023.38 1023.30 1023.07 1023.55 1024.69 1025.93 1026.84 1026.54 1026.15 1025.48 1025.20 1025.19 1024.92 1024.74 1024.87 1026.14 1027.61 1028.32 1028.50 1030.05 1029.94 1029.72 1029.03 1028.19 1026.22 1025.87
1027.99 1027.99 1027.96 1027.83 1027.70 1027.57 1027.35 1027.12 1026.91 1026.64 1026.36 1026.10 1025.83 1025.51 1025.37 1025.20 1024.92 1024.63 1024.42 1024.21 1024.57 1024.79 1025.16 1026.23 1026.76 1026.82 1027.28 1027.16 1026.59 1026.73 1026.18 1025.72 1025.54 1026.03 1026.76 1026.88 1028.49 1029.78 1029.76 1030.02 1030.45 1030.97 1030.65 1030.01 1028.39 1027.30 1026.71
1028.27 1028.28 1028.24 1028.13 1028.00 1027.82 1027.63 1027.41 1027.15 1026.87 1026.63 1026.35 1026.03 1025.74 1025.47 1025.28 1025.02 1024.71 1024.77 1025.50 1026.25 1026.47 1027.10 1027.02 1027.03 1027.30 1027.40 1027.37 1027.36 1027.23 1026.70 1026.86 1027.30 1027.98 1027.85 1028.44 1029.78 1029.87 1029.80 1030.18 1030.85 1030.79 1030.52 1029.75 1028.56 1027.95 1027.87
1028.50 1028.50 1028.45 1028.41 1028.27 1028.07 1027.89 1027.67 1027.38 1027.12 1026.84 1026.51 1026.17 1025.84 1025.59 1025.34 1025.11 1025.27 1025.85 1026.52 1026.52 1026.39 1026.58 1027.39 1027.34 1027.53 1027.75 1027.86 1028.20 1028.12 1027.90 1028.13 1028.52 1028.96 1029.56 1029.51 1030.20 1029.96 1030.05 1030.52 1030.86 1030.61 1030.56 1030.51 1030.37 1028.66 1027.86
1028.67 1028.71 1028.66 1028.61 1028.47 1028.31 1028.14 1027.91 1027.61 1027.32 1027.02 1026.68 1026.39 1026.04 1025.71 1025.32 1025.47 1025.75 1026.48 1026.56 1026.49 1026.48 1026.87 1027.86 1027.41 1027.80 1027.81 1027.78 1028.51 1028.40 1028.60 1029.17 1029.47 1030.33 1030.28 1030.45 1030.51 1030.53 1030.50 1030.96 1031.57 1031.05 1030.19 1030.60 1030.24 1030.60 1030.75
1028.80 1028.85 1028.83 1028.75 1028.62 1028.50 1028.33 1028.09 1027.79 1027.51 1027.20 1026.88 1026.61 1026.29 1025.85 1025.46 1026.00 1026.37 1026.84 1026.57 1026.46 1026.57 1027.51 1027.99 1027.73 1027.63 1027.74 1028.35 1029.24 1029.05 1029.22 1029.35 1030.49 1031.14 1031.09 1030.96 1030.86 1030.80 1031.07 1031.23 1031.57 1031.08 1030.44 1030.38 1030.62 1031.66 1032.16
1028.82 1028.96 1029.00 1028.92 1028.84 1028.71 1028.52 1028.27 1028.00 1027.67 1027.38 1027.09 1026.84 1026.50 1025.92 1026.04 1026.59 1026.92 1026.72 1026.68 1026.76 1026.88 1027.46 1028.07 1027.99 1028.17 1028.40 1028.96 1029.38 1029.54 1030.17 1030.52 1030.97 1031.71 1031.49 1031.38 1031.24 1031.50 1031.65 1031.30 1031.62 1031.63 1030.67 1030.53 1031.12 1032.33 1033.21
1028.82 1028.99 1029.12 1029.07 1029.00 1028.89 1028.73 1028.50 1028.19 1027.86 1027.55 1027.28 1027.11 1026.87 1026.43 1026.53 1027.19 1026.95 1026.97 1027.04 1027.25 1027.71 1028.04 1028.72 1028.89 1028.98 1029.49 1030.06 1030.17 1030.68 1032.27 1033.30 1034.65 1034.28 1033.90 1032.64 1032.16 1032.01 1032.01 1032.16 1032.10 1032.96 1033.16 1034.07 1034.01 1034.58 1034.47
1028.78 1028.95 1029.09 1029.12 1029.12 1029.06 1028.94 1028.69 1028.36 1028.05 1027.75 1027.43 1027.22 1027.10 1027.03 1027.06 1027.11 1027.08 1027.29 1027.48 1028.00 1029.28 1029.39 1029.68 1029.50 1029.62 1030.25 1030.80 1031.29 1032.11 1033.50 1035.49 1036.26 1036.76 1036.37 1035.83 1033.03 1032.89 1032.88 1033.65 1034.45 1034.87 1036.04 1038.25 1039.33 1038.16 1036.24
1028.70 1028.89 1029.06 1029.14 1029.16 1029.11 1028.99 1028.79 1028.48 1028.16 1027.85 1027.48 1027.21 1027.24 1027.27 1027.39 1027.14 1027.38 1027.62 1028.90 1030.16 1030.54 1030.61 1030.58 1030.20 1030.55 1031.14 1031.53 1032.38 1033.04 1034.83 1036.49 1037.40 1037.76 1038.07 1037.67 1035.05 1033.60 1033.55 1033.85 1035.20 1036.26 1037.50 1038.36 1039.47 1039.58 1038.53
1028.55 1028.76 1028.93 1029.06 1029.10 1029.09 1029.02 1028.84 1028.57 1028.23 1027.90 1027.63 1027.79 1027.56 1027.48 1027.28 1027.30 1027.62 1028.14 1030.43 1031.16 1031.28 1031.34 1031.45 1031.65 1032.02 1032.64 1032.74 1033.25 1034.15 1035.22 1036.54 1037.43 1037.86 1038.05 1038.68 1037.51 1034.17 1034.17 1034.62 1035.73 1036.99 1038.16 1039.36 1040.96 1041.24 1039.61
1028.40 1028.59 1028.75 1028.90 1029.00 1029.10 1029.12 1028.96 1028.69 1028.32 1027.89 1027.67 1027.94 1027.94 1027.46 1027.32 1027.58 1028.16 1030.04 1031.32 1031.68 1031.86 1031.99 1032.32 1032.40 1032.87 1033.50 1033.94 1034.24 1034.81 1035.39 1036.15 1036.69 1037.41 1037.82 1038.51 1039.01 1035.73 1035.07 1035.56 1036.47 1037.87 1039.21 1040.44 1041.39 1041.87 1041.74
1028.18 1028.44 1028.67 1028.84 1028.98 1029.10 1029.17 1029.09 1028.86 1028.48 1027.84 1027.66 1028.18 1028.20 1027.53 1027.61 1028.41 1029.93 1031.63 1031.71 1031.83 1032.14 1032.39 1032.68 1032.92 1033.39 1034.05 1034.28 1034.73 1034.87 1035.06 1035.36 1036.02 1036.74 1037.94 1038.61 1039.20 1038.00 1035.79 1036.09 1036.82 1037.95 1039.47 1040.87 1042.23 1042.40 1041.84
1027.81 1028.13 1028.40 1028.70 1028.93 1029.08 1029.20 1029.19 1029.05 1028.79 1028.46 1028.74 1029.02 1028.60 1027.61 1027.78 1029.59 1031.46 1032.03 1032.25 1032.27 1032.54 1032.57 1032.82 1033.16 1033.54 1034.13 1034.56 1034.93 1034.58 1034.56 1034.71 1035.30 1036.07 1037.23 1038.28 1038.96 1038.17 1035.78 1036.53 1036.67 1037.76 1038.85 1039.86 1040.95 1041.32 1040.73
1027.45 1027.81 1028.11 1028.40 1028.70 1028.95 1029.20 1029.26 1029.24 1029.14 1028.90 1029.02 1029.41 1029.43 1028.77 1029.01 1030.26 1030.99 1031.86 1032.29 1032.52 1032.49 1032.56 1032.75 1033.13 1033.59 1034.11 1034.26 1034.19 1034.19 1034.10 1034.44 1034.96 1035.63 1036.21 1037.24 1038.18 1037.94 1036.99 1035.40 1035.66 1037.70 1038.37 1038.83 1039.83 1040.67 1038.38
1026.99 1027.36 1027.70 1028.04 1028.39 1028.65 1028.91 1029.12 1029.21 1029.24 1029.09 1029.30 1029.97 1030.67 1030.81 1031.12 1031.00 1031.26 1031.60 1032.11 1032.33 1032.44 1032.74 1032.95 1033.26 1033.46 1033.87 1034.36 1034.00 1033.98 1033.81 1034.38 1035.06 1035.45 1036.43 1037.26 1037.69 1036.94 1035.34 1034.43 1034.81 1035.25 1036.08 1037.42 1038.20 1037.07 1037.36
1026.46 1026.80 1027.12 1027.48 1027.89 1028.23 1028.57 1028.84 1029.04 1029.15 1029.14 1029.63 1030.33 1030.70 1031.44 1031.92 1031.34 1031.41 1031.69 1031.76 1031.87 1032.09 1032.50 1032.96 1033.24 1032.78 1033.38 1033.51 1032.89 1033.33 1033.40 1033.95 1034.66 1035.79 1036.56 1037.49 1037.22 1036.53 1034.55 1032.90 1033.35 1033.97 1033.94 1035.05 1035.82 1036.20 1035.35
1025.71 1026.13 1026.53 1026.94 1027.29 1027.71 1028.14 1028.52 1028.82 1029.06 1029.37 1029.93 1030.28 1030.55 1031.01 1031.73 1031.52 1031.74 1031.19 1031.08 1031.23 1031.64 1031.99 1032.06 1032.59 1032.96 1033.10 1032.66 1032.75 1032.87 1033.16 1033.60 1034.14 1034.96 1036.04 1037.10 1037.49 1037.13 1034.75 1032.90 1032.42 1032.79 1031.64 1032.81 1033.80 1033.89 1033.38
1024.81 1025.27 1025.76 1026.24 1026.64 1027.09 1027.59 1028.02 1028.37 1028.74 1029.15 1029.84 1030.07 1030.69 1031.46 1031.50 1031.50 1031.17 1030.71 1030.94 1031.18 1031.42 1032.07 1032.26 1032.52 1033.15 1033.02 1032.94 1033.03 1033.06 1033.31 1033.61 1034.09 1034.50 1035.02 1036.28 1037.31 1037.55 1035.60 1033.29 1031.66 1029.54 1029.78 1030.80 1032.04 1031.75 1031.63
1023.90 1024.35 1024.82 1025.34 1025.91 1026.44 1027.00 1027.53 1028.02 1028.34 1028.69 1029.41 1029.63 1030.22 1031.11 1031.33 1030.79 1030.53 1030.70 1031.23 1031.68 1031.85 1032.19 1032.25 1032.69 1033.12 1033.16 1033.29 1033.55 1033.33 1033.40 1033.75 1033.83 1034.41 1035.19 1035.79 1036.95 1037.64 1036.69 1034.99 1030.32 1028.66 1028.94 1029.90 1031.15 1030.43 1030.73
1022.93 1023.37 1023.79 1024.33 1024.92 1025.56 1026.20 1026.70 1027.39 1027.86 1028.22 1029.01 1029.33 1029.58 1030.62 1031.06 1029.82 1029.77 1030.70 1031.25 1032.25 1032.86 1032.85 1032.93 1033.23 1033.35 1033.61 1034.01 1034.31 1034.20 1033.62 1033.42 1034.02 1034.74 1035.42 1036.18 1036.73 1037.55 1036.87 1035.65 1031.38 1027.24 1027.46 1028.49 1029.96 1029.96 1029.58
1022.41 1022.49 1022.90 1023.31 1023.94 1024.54 1025.17 1025.92 1026.56 1027.43 1028.00 1028.74 1028.87 1029.03 1029.93 1030.86 1029.82 1029.74 1030.19 1030.70 1031.21 1032.17 1033.08 1033.41 1033.56 1033.86 1034.07 1034.70 1034.94 1034.72 1033.91 1033.41 1034.10 1034.58 1035.52 1036.47 1037.01 1036.70 1035.95 1034.25 1029.25 1026.21 1026.70 1027.96 1029.18 1029.08 1029.01
1022.64 1022.11 1021.95 1022.40 1022.77 1023.61 1024.23 1025.00 1025.88 1026.35 1027.35 1028.35 1028.71 1028.68 1028.87 1029.92 1029.72 1029.58 1029.74 1030.11 1030.67 1031.07 1032.04 1033.37 1034.05 1034.36 1034.58 1034.90 1034.81 1034.29 1034.24 1034.03 1034.24 1033.22 1033.56 1034.48 1035.22 1034.96 1034.43 1032.27 1027.81 1025.17 1026.19 1026.89 1026.64 1026.89 1027.83
1023.12 1022.45 1021.63 1021.70 1022.04 1022.48 1023.12 1023.98 1024.68 1025.54 1026.19 1027.19 1028.38 1028.36 1028.78 1029.57 1029.97 1029.67 1029.67 1029.74 1029.69 1029.66 1030.68 1031.74 1031.64 1032.12 1032.45 1033.09 1033.70 1033.82 1034.12 1034.18 1034.16 1033.61 1032.42 1032.84 1031.35 1031.13 1030.33 1026.46 1024.56 1024.44 1024.24 1024.50 1025.17 1026.31 1027.24
Thickness
5648 5649 5650 5652 5653 5655 5655 5656 5658 5659 5660 5661 5663 5665 5666 5667 5668 5669 5670 5670 5671 5672 5673 5674 5676 5677 5674 5648 5630 5636 5640 5641 5643 5642 5639 5636 5626 5619 5606 5602 5592 5581 5567 5564 5555 5542 5534
5646 5647 5648 5650 5651 5651 5652 5654 5655 5656 5658 5659 5661 5662 5664 5666 5667 5668 5668 5668 5669 5670 5670 5671 5672 5673 5666 5635 5632 5633 5637 5638 5636 5633 5626 5623 5612 5610 5601 5593 5581 5566 5557 5548 5543 5534 5522
5645 5645 5646 5647 5647 5648 5649 5651 5652 5653 5655 5656 5658 5660 5663 5665 5666 5666 5666 5666 5667 5667 5668 5668 5667 5664 5648 5628 5631 5631 5633 5630 5629 5625 5619 5613 5605 5599 5590 5582 5573 5562 5544 5538 5531 5517 5503
5642 5643 5643 5643 5644 5645 5646 5647 5649 5651 5652 5654 5656 5658 5660 5663 5664 5664 5665 5665 5665 5665 5665 5664 5663 5658 5631 5633 5630 5627 5627 5626 5624 5621 5613 5606 5598 5591 5586 5572 5568 5549 5530 5496 5509 5499 5494
5639 5640 5641 5641 5641 5641 5642 5645 5647 5649 5650 5652 5654 5655 5657 5659 5661 5663 5664 5664 5663 5664 5664 5663 5661 5655 5631 5631 5625 5623 5620 5616 5616 5613 5608 5602 5594 5576 5556 5536 5523 5502 5467 5477 5480 5484 5469
5637 5637 5637 5638 5637 5638 5640 5643 5645 5646 5648 5650 5652 5654 5655 5657 5659 5661 5662 5663 5663 5664 5662 5661 5655 5648 5628 5614 5616 5616 5617 5613 5608 5603 5601 5591 5562 5537 5521 5520 5479 5481 5458 5467 5455 5465 5447
5634 5634 5634 5634 5635 5636 5638 5640 5642 5644 5646 5647 5649 5652 5653 5654 5657 5659 5661 5661 5657 5652 5642 5624 5622 5620 5613 5612 5613 5606 5607 5606 5605 5590 5568 5572 5538 5511 5509 5506 5500 5474 5441 5434 5449 5451 5432
5630 5631 5631 5632 5633 5634 5636 5638 5640 5642 5643 5644 5646 5649 5651 5653 5655 5658 5657 5650 5640 5639 5619 5625 5621 5613 5612 5608 5600 5600 5601 5594 5581 5565 5560 5544 5520 5523 5519 5507 5479 5463 5452 5431 5445 5442 5420
5628 5628 5629 5630 5631 5633 5635 5636 5638 5639 5641 5643 5645 5648 5651 5653 5655 5654 5647 5640 5638 5637 5629 5620 5617 5610 5605 5603 5592 5589 5587 5578 5569 5553 5535 5531 5530 5524 5515 5495 5478 5467 5438 5422 5421 5431 5418
5626 5627 5628 5628 5630 5631 5632 5634 5636 5638 5640 5643 5645 5648 5650 5653 5652 5648 5640 5637 5636 5633 5625 5619 5615 5605 5603 5600 5588 5586 5577 5567 5554 5542 5539 5531 5522 5510 5499 5489 5461 5446 5460 5441 5433 5384 5355
5625 5625 5626 5627 5628 5629 5630 5632 5635 5637 5639 5641 5643 5645 5648 5651 5647 5640 5637 5636 5634 5630 5619 5620 5609 5605 5601 5590 5576 5575 5570 5563 5546 5533 5531 5535 5510 5496 5489 5480 5459 5455 5449 5434 5426 5371 5348
5624 5624 5625 5626 5627 5627 5628 5630 5632 5634 5636 5639 5640 5642 5646 5645 5641 5636 5635 5633 5629 5630 5611 5614 5603 5596 5593 5583 5578 5574 5554 5548 5544 5534 5533 5522 5508 5492 5479 5472 5460 5451 5441 5442 5424 5376 5313
5622 5622 5623 5624 5625 5626 5626 5628 5630 5631 5634 5636 5636 5637 5640 5639 5633 5632 5630 5624 5631 5616 5620 5611 5588 5586 5580 5563 5570 5562 5527 5505 5489 5497 5490 5505 5501 5487 5478 5456 5453 5423 5387 5371 5391 5349 5333
5620 5621 5621 5622 5622 5623 5623 5625 5627 5629 5630 5632 5633 5634 5633 5631 5629 5627 5622 5628 5618 5618 5600 5585 5588 5583 5577 5553 5560 5546 5532 5494 5488 5464 5451 5458 5500 5477 5465 5424 5399 5396 5353 5316 5310 5334 5353
5618 5618 5618 5619 5619 5620 5621 5623 5625 5626 5628 5630 5631 5631 5629 5627 5625 5623 5619 5603 5602 5591 5576 5567 5576 5587 5577 5558 5539 5529 5499 5474 5462 5446 5458 5433 5482 5469 5457 5444 5404 5391 5352 5357 5296 5289 5287
5617 5616 5617 5617 5617 5617 5618 5620 5621 5624 5625 5627 5624 5626 5624 5624 5621 5616 5609 5595 5582 5570 5567 5564 5570 5562 5553 5538 5533 5510 5510 5469 5465 5459 5438 5433 5415 5473 5452 5437 5417 5382 5363 5320 5278 5258 5291
5614 5614 5614 5614 5614 5614 5614 5615 5617 5620 5622 5624 5621 5622 5622 5620 5618 5609 5586 5573 5566 5565 5560 5560 5561 5539 5515 5517 5518 5505 5485 5488 5469 5470 5455 5412 5398 5460 5453 5418 5381 5365 5323 5313 5301 5280 5244
5612 5611 5610 5610 5610 5610 5609 5610 5611 5614 5619 5621 5615 5622 5619 5616 5610 5576 5557 5575 5573 5560 5556 5548 5540 5515 5512 5519 5503 5514 5511 5493 5472 5463 5439 5425 5386 5398 5437 5405 5371 5356 5333 5299 5296 5288 5250
5610 5609 5608 5606 5605 5604 5604 5604 5605 5607 5610 5609 5605 5606 5614 5611 5594 5570 5568 5565 5565 5555 5553 5546 5542 5534 5520 5517 5496 5501 5510 5491 5478 5471 5431 5415 5395 5407 5445 5403 5387 5354 5323 5299 5297 5286 5274
5608 5606 5605 5603 5602 5600 5598 5598 5598 5599 5601 5601 5597 5596 5600 5590 5580 5566 5551 5570 5559 5552 5551 5546 5539 5530 5522 5516 5507 5496 5506 5490 5477 5470 5468 5443 5401 5412 5427 5438 5377 5360 5338 5307 5306 5299 5266
5604 5603 5602 5600 5598 5596 5594 5594 5594 5593 5594 5592 5586 5579 5577 5576 5577 5576 5564 5550 5560 5555 5542 5537 5533 5525 5503 5492 5517 5498 5499 5485 5473 5469 5453 5426 5404 5424 5429 5427 5413 5399 5387 5326 5321 5326 5299
5600 5599 5599 5598 5595 5593 5592 5590 5588 5588 5588 5584 5575 5572 5558 5548 5569 5574 5564 5549 5561 5549 5527 5531 5526 5533 5513 5494 5513 5493 5504 5495 5481 5452 5443 5423 5412 5417 5408 5440 5400 5385 5386 5361 5338 5328 5313
5597 5595 5594 5593 5592 5590 5588 5585 5583 5581 5579 5574 5569 5568 5563 5558 5561 5548 5555 5564 5551 5545 5542 5539 5526 5519 5516 5515 5509 5501 5492 5481 5475 5456 5442 5418 5406 5401 5416 5432 5426 5399 5386 5365 5333 5292 5315
5595 5593 5591 5590 5589 5587 5584 5580 5577 5574 5572 5568 5565 5557 5551 5559 5543 5550 5565 5552 5549 5542 5530 5533 5526 5511 5510 5504 5497 5492 5483 5474 5465 5458 5451 5426 5404 5401 5402 5421 5446 5444 5379 5371 5368 5350 5318
5592 5590 5589 5587 5585 5582 5579 5575 5571 5569 5567 5563 5560 5553 5539 5539 5546 5559 5550 5546 5533 5531 5529 5522 5516 5504 5499 5495 5479 5487 5483 5475 5468 5456 5442 5431 5413 5384 5376 5381 5450 5447 5412 5383 5365 5367 5325
5587 5586 5586 5584 5581 5579 5574 5571 5566 5562 5560 5557 5553 5552 5535 5528 5557 5554 5532 5529 5507 5492 5499 5510 5499 5496 5491 5478 5474 5476 5493 5489 5477 5450 5435 5428 5410 5384 5380 5369 5421 5435 5432 5395 5364 5356 5364
5581 5583 5581 5580 5577 5574 5571 5565 5560 5554 5550 5548 5546 5545 5532 5513 5537 5540 5523 5523 5520 5504 5487 5486 5479 5483 5479 5463 5468 5472 5483 5474 5464 5473 5403 5393 5380 5382 5382 5380 5425 5444 5427 5393 5400 5387 5354
5570 5575 5578 5577 5576 5569 5566 5561 5554 5551 5544 5539 5536 5537 5530 5508 5523 5531 5528 5520 5511 5504 5506 5480 5482 5467 5449 5454 5458 5462 5444 5446 5433 5461 5429 5418 5393 5389 5384 5374 5429 5444 5426 5416 5401 5384 5361
5555 5561 5569 5571 5571 5568 5563 5556 5551 5545 5540 5534 5528 5526 5522 5509 5514 5515 5515 5517 5517 5514 5501 5487 5500 5484 5482 5474 5448 5440 5455 5412 5419 5459 5449 5435 5446 5434 5443 5465 5461 5444 5447 5429 5414 5383 5366